• en France
  • Liste des pays
  • À 7 jours
  • Température de l'eau
  • Carte satellitaire
  • Carte météo
  • Widgets météo
  • user-avatar
    Se connecter

    Météo par heure à Mokoa

    Ce jour, 19 Février, Lundi

    Heure Température Précipitation Vent Pression Humidité
    00:00 +26°C° 0 mm 6 m/s 756 mmHg 75%
    01:00 +26°C° 0 mm 6 m/s 756 mmHg 76%
    02:00 +26°C° 0 mm 5 m/s 756 mmHg 77%
    03:00 +26°C° 0 mm 5 m/s 755 mmHg 79%
    04:00 +25°C° 0 mm 5 m/s 755 mmHg 80%
    05:00 +25°C° 0 mm 5 m/s 756 mmHg 79%
    06:00 +26°C° 0 mm 5 m/s 756 mmHg 79%
    07:00 +26°C° 0 mm 5 m/s 756 mmHg 78%
    08:00 +27°C° 0 mm 6 m/s 756 mmHg 70%
    09:00 +29°C° 0 mm 7 m/s 757 mmHg 61%
    10:00 +32°C° 0 mm 8 m/s 757 mmHg 53%
    11:00 +33°C° 0 mm 8 m/s 756 mmHg 49%
    12:00 +34°C° 0 mm 8 m/s 756 mmHg 46%
    13:00 +35°C° 0 mm 8 m/s 755 mmHg 43%
    14:00 +34°C° 0 mm 8 m/s 754 mmHg 43%
    15:00 +34°C° 0 mm 8 m/s 754 mmHg 44%
    16:00 +33°C° 0 mm 8 m/s 754 mmHg 45%
    17:00 +32°C° 0 mm 8 m/s 754 mmHg 52%
    18:00 +29°C° 0 mm 8 m/s 754 mmHg 59%
    19:00 +28°C° 0 mm 8 m/s 755 mmHg 66%
    20:00 +27°C° 0 mm 8 m/s 755 mmHg 67%
    21:00 +27°C° 0 mm 8 m/s 756 mmHg 69%
    22:00 +27°C° 0 mm 8 m/s 756 mmHg 71%
    23:00 +27°C° 0 mm 7 m/s 756 mmHg 72%

    Demain, 20 Février, Mardi

    Heure Température Précipitation Vent Pression Humidité
    00:00 +27°C° 0 mm 7 m/s 756 mmHg 73%
    01:00 +26°C° 0 mm 6 m/s 756 mmHg 74%
    02:00 +26°C° 0 mm 6 m/s 756 mmHg 76%
    03:00 +26°C° 0 mm 5 m/s 756 mmHg 77%
    04:00 +25°C° 0 mm 5 m/s 756 mmHg 78%
    05:00 +26°C° 0 mm 5 m/s 756 mmHg 78%
    06:00 +26°C° 0 mm 5 m/s 756 mmHg 78%
    07:00 +26°C° 0 mm 5 m/s 757 mmHg 77%
    08:00 +28°C° 0,1 mm 6 m/s 757 mmHg 69%
    09:00 +29°C° 0,1 mm 7 m/s 758 mmHg 61%
    10:00 +32°C° 0,1 mm 7 m/s 758 mmHg 53%
    11:00 +33°C° 0 mm 8 m/s 757 mmHg 48%
    12:00 +34°C° 0 mm 8 m/s 756 mmHg 44%
    13:00 +35°C° 0 mm 8 m/s 756 mmHg 40%
    14:00 +34°C° 0 mm 8 m/s 755 mmHg 42%
    15:00 +34°C° 0 mm 8 m/s 755 mmHg 45%
    16:00 +33°C° 0 mm 8 m/s 754 mmHg 47%
    17:00 +32°C° 0 mm 8 m/s 755 mmHg 54%
    18:00 +29°C° 0 mm 8 m/s 755 mmHg 61%
    19:00 +28°C° 0 mm 7 m/s 756 mmHg 68%
    20:00 +28°C° 0 mm 7 m/s 756 mmHg 70%
    21:00 +27°C° 0 mm 7 m/s 757 mmHg 72%
    22:00 +27°C° 0 mm 7 m/s 757 mmHg 74%
    23:00 +27°C° 0,1 mm 6 m/s 757 mmHg 75%

    Après-demain, 21 Février, Mercredi

    Heure Température Précipitation Vent Pression Humidité
    00:00 +27°C° 0,1 mm 6 m/s 757 mmHg 77%
    01:00 +26°C° 0,1 mm 5 m/s 757 mmHg 78%
    02:00 +26°C° 0,2 mm 5 m/s 756 mmHg 79%
    03:00 +26°C° 0,2 mm 5 m/s 756 mmHg 81%
    04:00 +25°C° 0,2 mm 5 m/s 756 mmHg 82%
    05:00 +26°C° 0,3 mm 5 m/s 757 mmHg 81%
    06:00 +26°C° 0,3 mm 5 m/s 757 mmHg 81%
    07:00 +26°C° 0,3 mm 5 m/s 758 mmHg 80%
    08:00 +27°C° 0,1 mm 6 m/s 758 mmHg 72%
    09:00 +29°C° 0,1 mm 6 m/s 758 mmHg 64%
    10:00 +32°C° 0,1 mm 7 m/s 758 mmHg 55%
    11:00 +33°C° 0 mm 7 m/s 758 mmHg 51%
    12:00 +34°C° 0 mm 7 m/s 757 mmHg 47%
    13:00 +34°C° 0 mm 7 m/s 756 mmHg 43%
    14:00 +34°C° 0 mm 7 m/s 756 mmHg 44%
    15:00 +34°C° 0 mm 7 m/s 755 mmHg 45%
    16:00 +33°C° 0 mm 7 m/s 754 mmHg 46%
    17:00 +32°C° 0 mm 7 m/s 755 mmHg 53%
    18:00 +29°C° 0 mm 7 m/s 755 mmHg 59%
    19:00 +28°C° 0 mm 6 m/s 756 mmHg 66%
    20:00 +28°C° 0 mm 6 m/s 756 mmHg 68%
    21:00 +27°C° 0 mm 6 m/s 757 mmHg 71%
    22:00 +27°C° 0 mm 7 m/s 757 mmHg 74%
    23:00 +27°C° 0,1 mm 6 m/s 757 mmHg 75%

    22 Février, Jeudi

    Heure Température Précipitation Vent Pression Humidité
    00:00 +26°C° 0,1 mm 6 m/s 757 mmHg 77%
    01:00 +26°C° 0,1 mm 5 m/s 757 mmHg 78%
    02:00 +26°C° 0,1 mm 5 m/s 757 mmHg 79%
    03:00 +26°C° 0,1 mm 5 m/s 757 mmHg 80%
    04:00 +26°C° 0,1 mm 5 m/s 756 mmHg 80%
    05:00 +26°C° 0 mm 5 m/s 757 mmHg 79%
    06:00 +26°C° 0 mm 4 m/s 757 mmHg 78%
    07:00 +26°C° 0 mm 4 m/s 758 mmHg 78%
    08:00 +28°C° 0 mm 5 m/s 758 mmHg 69%
    09:00 +29°C° 0 mm 6 m/s 758 mmHg 60%
    10:00 +32°C° 0 mm 6 m/s 759 mmHg 51%
    11:00 +33°C° 0 mm 7 m/s 758 mmHg 48%
    12:00 +34°C° 0 mm 7 m/s 757 mmHg 46%
    13:00 +34°C° 0 mm 7 m/s 756 mmHg 43%
    14:00 +34°C° 0 mm 7 m/s 756 mmHg 44%
    15:00 +34°C° 0 mm 7 m/s 755 mmHg 46%
    16:00 +33°C° 0 mm 7 m/s 755 mmHg 47%
    17:00 +32°C° 0 mm 7 m/s 755 mmHg 54%
    18:00 +29°C° 0 mm 6 m/s 755 mmHg 60%
    19:00 +28°C° 0 mm 6 m/s 756 mmHg 66%
    20:00 +27°C° 0 mm 6 m/s 756 mmHg 69%
    21:00 +27°C° 0 mm 6 m/s 757 mmHg 72%
    22:00 +27°C° 0 mm 5 m/s 757 mmHg 75%
    23:00 +27°C° 0,1 mm 5 m/s 757 mmHg 77%

    23 Février, Vendredi

    Heure Température Précipitation Vent Pression Humidité
    00:00 +26°C° 0,1 mm 5 m/s 756 mmHg 78%
    01:00 +26°C° 0,1 mm 4 m/s 756 mmHg 79%
    02:00 +26°C° 0,2 mm 4 m/s 756 mmHg 80%
    03:00 +25°C° 0,2 mm 4 m/s 756 mmHg 81%
    04:00 +25°C° 0,2 mm 4 m/s 756 mmHg 82%
    05:00 +25°C° 0,2 mm 4 m/s 756 mmHg 82%
    06:00 +26°C° 0,2 mm 4 m/s 756 mmHg 81%
    07:00 +26°C° 0,2 mm 4 m/s 757 mmHg 80%
    08:00 +27°C° 0,2 mm 5 m/s 757 mmHg 72%
    09:00 +29°C° 0,2 mm 5 m/s 757 mmHg 65%
    10:00 +30°C° 0,2 mm 6 m/s 758 mmHg 58%
    11:00 +32°C° 0,1 mm 6 m/s 757 mmHg 53%
    12:00 +33°C° 0,1 mm 6 m/s 756 mmHg 49%
    13:00 +34°C° 0,1 mm 6 m/s 755 mmHg 44%
    14:00 +34°C° 0 mm 6 m/s 755 mmHg 45%
    15:00 +33°C° 0 mm 6 m/s 754 mmHg 46%
    16:00 +33°C° 0 mm 6 m/s 754 mmHg 47%
    17:00 +32°C° 0 mm 6 m/s 754 mmHg 54%
    18:00 +29°C° 0 mm 5 m/s 755 mmHg 61%
    19:00 +27°C° 0 mm 5 m/s 755 mmHg 68%
    20:00 +27°C° 0 mm 5 m/s 755 mmHg 71%
    21:00 +27°C° 0 mm 5 m/s 756 mmHg 74%
    22:00 +26°C° 0 mm 5 m/s 756 mmHg 77%
    23:00 +26°C° 0 mm 4 m/s 756 mmHg 78%

    24 Février, Samedi

    Heure Température Précipitation Vent Pression Humidité
    00:00 +26°C° 0 mm 4 m/s 756 mmHg 80%
    01:00 +25°C° 0 mm 4 m/s 755 mmHg 82%
    02:00 +25°C° 0,1 mm 4 m/s 755 mmHg 83%
    03:00 +25°C° 0,1 mm 3 m/s 755 mmHg 84%
    04:00 +25°C° 0,1 mm 3 m/s 755 mmHg 85%
    05:00 +25°C° 0 mm 3 m/s 755 mmHg 84%
    06:00 +25°C° 0 mm 3 m/s 756 mmHg 83%
    07:00 +25°C° 0 mm 3 m/s 756 mmHg 82%
    08:00 +27°C° 0,1 mm 4 m/s 757 mmHg 72%
    09:00 +29°C° 0,1 mm 4 m/s 757 mmHg 63%
    10:00 +32°C° 0,1 mm 5 m/s 757 mmHg 54%
    11:00 +33°C° 0 mm 5 m/s 756 mmHg 50%
    12:00 +34°C° 0 mm 5 m/s 756 mmHg 46%
    13:00 +35°C° 0 mm 5 m/s 755 mmHg 41%
    14:00 +34°C° 0 mm 5 m/s 754 mmHg 42%
    15:00 +34°C° 0 mm 5 m/s 754 mmHg 43%
    16:00 +33°C° 0 mm 5 m/s 753 mmHg 44%
    17:00 +32°C° 0 mm 5 m/s 754 mmHg 52%
    18:00 +29°C° 0 mm 5 m/s 754 mmHg 59%
    19:00 +27°C° 0 mm 5 m/s 754 mmHg 67%
    20:00 +27°C° 0 mm 4 m/s 755 mmHg 71%
    21:00 +26°C° 0 mm 4 m/s 755 mmHg 74%
    22:00 +26°C° 0 mm 4 m/s 756 mmHg 78%
    23:00 +25°C° 0 mm 4 m/s 756 mmHg 80%
    Voir plus